Lid_Strength_Index
-0 2 2 7 12 12 14 12 12 11 10 7 6 8 9 8 10 13 2 0 -0 -0 -1 -1 -1 -1 -1 -0 -0 -0 0 -0 -0 -1 -1 -1 -1 -1 -2 -2 -2 -1 -1 -1 -2 -2 -2 -1 -1
1 2 6 9 13 15 14 11 12 10 7 6 6 7 8 10 5 4 3 0 -0 0 -0 -0 -1 -1 -0 -0 -0 -0 -0 -1 -1 -1 -1 -1 -1 -1 -2 -1 -1 -1 -1 -2 -2 -2 -2 -2 -1
2 2 8 11 14 14 14 11 10 8 7 8 8 6 7 8 4 3 1 -0 -0 1 0 -0 -1 -1 -1 -0 -0 -0 -0 0 0 -0 -1 -1 -1 -1 -2 -1 -1 -1 -1 -2 -1 -2 -2 -2 -2
4 5 9 13 15 13 10 9 9 9 7 6 7 9 6 3 4 2 0 0 1 1 0 -1 -1 -1 -0 -0 -0 0 0 0 0 0 -0 -1 -1 -1 -1 -1 -1 -1 -1 -2 -1 -1 -2 -2 -2
5 6 11 13 15 11 9 8 8 9 9 8 7 10 8 3 1 1 1 0 1 1 1 0 -1 -0 -0 0 0 0 0 0 0 1 0 0 -0 -1 -1 -1 -1 -1 -1 -1 -1 -1 -1 -1 -1
7 7 13 15 14 11 9 7 8 8 8 8 8 8 7 2 2 1 0 0 0 1 1 2 1 0 0 1 1 1 1 1 1 1 1 1 1 -0 -0 -1 -1 -1 -1 -1 -1 -1 -1 -1 -1
8 10 13 13 13 12 9 7 8 8 8 8 6 9 6 4 2 1 1 1 1 1 2 3 2 1 1 1 1 1 2 2 2 2 2 2 1 1 1 -0 -0 -1 -1 -0 -0 -0 0 0 0
8 9 12 12 13 12 8 8 7 8 9 5 5 9 8 4 2 1 1 1 1 2 3 3 3 3 3 3 2 2 2 2 2 2 2 2 2 2 2 1 -0 -1 -0 0 0 1 2 2 1
7 11 14 12 12 11 8 9 7 5 7 6 5 6 4 2 1 2 2 2 2 3 3 4 3 4 4 4 4 3 2 2 2 3 3 3 5 5 4 2 0 -0 0 0 1 2 2 2 3
9 12 12 12 12 10 8 8 7 8 8 8 7 4 3 3 3 3 3 4 4 4 4 4 4 5 5 4 5 6 5 5 5 5 5 5 5 5 5 5 2 1 1 1 3 4 5 7 9
8 11 10 11 10 9 8 8 7 8 10 7 8 6 4 4 4 3 3 4 5 5 6 5 5 6 6 6 6 6 6 6 6 5 6 6 6 6 6 6 6 4 4 3 4 8 9 10 10
10 9 11 10 10 9 8 7 9 8 8 6 5 4 4 4 4 4 4 4 5 6 6 5 5 6 6 6 7 7 7 7 6 6 6 7 7 7 8 7 7 5 3 4 6 8 10 11 11
11 11 10 9 10 8 7 9 9 9 6 5 4 4 5 5 4 4 3 4 4 6 6 6 5 5 6 6 6 7 7 7 7 6 6 6 7 7 7 7 7 7 5 5 7 8 9 11 11
10 10 10 9 10 9 9 10 9 9 6 6 5 5 5 4 4 5 4 4 4 4 6 6 5 5 5 6 6 7 7 7 7 7 7 6 7 7 7 7 7 7 5 5 6 8 9 11 12
10 12 11 10 10 11 10 11 12 8 6 7 6 6 5 4 4 5 4 3 3 4 5 6 6 5 5 6 6 6 6 6 7 7 6 6 6 7 7 7 7 7 6 5 5 7 8 10 11
11 11 14 11 10 10 11 14 11 8 7 8 7 6 6 5 5 5 3 3 3 4 5 5 5 5 5 4 4 4 6 6 6 6 7 7 6 6 7 8 8 7 6 6 8 9 10 11 11
12 16 14 14 11 11 12 14 11 9 8 8 8 7 6 6 5 4 3 3 3 3 4 5 5 5 5 5 5 4 5 5 4 4 5 5 5 6 7 7 7 6 6 6 7 9 9 11 12
16 15 13 14 12 11 12 14 12 12 11 11 9 8 7 7 7 4 3 3 3 3 4 5 5 6 5 5 5 5 6 5 4 5 5 5 5 6 7 7 7 7 7 7 7 8 9 10 11
11 13 14 12 10 11 13 14 13 13 13 13 13 12 11 11 10 9 6 4 3 3 4 5 5 5 6 6 6 6 6 6 6 6 6 6 6 7 7 7 6 6 7 7 7 7 8 10 11
12 14 14 13 11 11 14 14 13 13 14 13 13 13 12 11 11 10 10 9 8 7 7 4 5 5 5 5 5 5 6 6 7 7 6 6 7 7 7 7 7 6 6 6 6 7 9 9 11
13 14 14 14 13 12 13 15 14 14 13 14 13 13 12 12 11 11 10 10 10 9 9 8 7 6 4 4 4 5 5 7 7 6 6 6 6 6 6 6 6 6 6 6 6 7 8 8 11
15 11 12 13 14 17 14 19 16 15 15 14 14 13 12 12 11 11 11 11 10 10 10 9 9 8 8 7 6 5 5 5 4 4 5 5 5 5 5 6 6 6 6 6 6 5 6 7 8
14 11 12 12 15 15 16 18 17 16 17 16 14 13 13 12 12 11 11 10 10 10 11 10 9 9 8 8 7 7 7 6 6 6 6 6 6 6 6 6 6 6 6 6 6 6 5 5 6
11 13 15 15 16 19 17 17 18 19 17 15 14 13 12 12 12 11 11 11 11 11 11 11 10 10 9 8 8 8 8 8 8 8 8 7 6 6 6 6 7 6 6 5 5 5 5 5 5
13 16 20 21 21 20 17 18 18 16 15 14 14 13 13 13 14 13 13 13 13 12 12 11 11 11 11 10 10 9 9 9 9 9 8 7 7 7 6 6 6 6 6 5 5 4 4 4 5
15 16 19 23 23 22 19 20 18 15 14 13 13 13 14 14 14 13 13 13 13 13 13 12 12 12 12 12 11 11 10 9 9 8 8 8 8 7 6 6 6 6 5 5 4 5 4 4 4
16 17 15 19 20 21 21 20 16 16 15 14 14 14 15 14 14 14 13 13 13 13 13 13 13 12 11 10 11 11 10 10 10 9 9 8 8 7 7 7 7 6 5 5 5 5 5 5 5
14 14 19 18 22 23 22 21 19 18 16 15 15 15 15 14 14 13 13 13 14 14 14 13 12 13 12 12 12 11 11 11 11 10 10 10 9 9 8 8 8 7 7 6 6 5 5 6 5
16 17 16 17 18 21 23 21 16 16 15 15 14 14 14 14 13 13 13 13 13 13 13 13 13 13 13 13 13 13 12 12 12 12 12 11 10 10 10 9 9 9 8 8 7 7 6 6 6
15 16 16 20 21 20 20 21 16 14 13 13 13 13 13 13 13 12 11 12 13 13 13 14 14 14 14 13 13 13 13 13 13 13 12 12 11 11 11 10 10 10 9 9 9 9 8 7 7